AirNav   Air Wisconsin Up To $57,000 Bonus
 
 1050 users online  

WN40 Coupeville Airpark
Coupeville, Washington, USA

GOING TO COUPEVILLE?


FAA INFORMATION EFFECTIVE 02 JANUARY 2020

Location

FAA Identifier: WN40
Lat/Long: 48-11-25.3510N 122-38-34.5970W
48-11.422517N 122-38.576617W
48.1903753,-122.6429436
(estimated)
Elevation: 200 ft. / 61 m (estimated)
Variation: 21E (1985)
From city: 3 miles S of COUPEVILLE, WA
Time zone: UTC -8 (UTC -7 during Daylight Saving Time)
Zip code: 98239

Airport Operations

Airport use: Private use. Permission required prior to landing
Activation date: 11/1983
Control tower: no
ARTCC: SEATTLE CENTER
FSS: SEATTLE FLIGHT SERVICE STATION
Attendance: UNATNDD
Wind indicator: yes
Segmented circle: no

Airport Communications

WX AWOS-3 at OKH (4 nm N): 132.775 (360-675-8431)
WX AWOS-3P at 0S9 (11 nm SW): 119.025 (360-379-1199)
WX AWOS-3 at BVS (19 nm NE): 121.125 (360-757-7767)
WX AWOS-3PT at AWO (19 nm E): 135.625 (360-435-8045)

Nearby radio navigation aids

VOR radial/distance  VOR name  Freq  Var
CVVr116/4.6PENN COVE VOR/DME117.2019E
PAEr298/21.9PAINE VOR/DME110.6020E

 
NDB name  Hdg/Dist  Freq  Var  ID
SKAGIT/BAY VIEW192/18.924016EBVS -... ...- ...
FRIDAY HARBOR125/24.628417EFHR ..-. .... .-.
EDIZ HOOK067/30.633817ENOW -. --- .--

Airport Services

Runway Information

Runway 6/24

Dimensions: 2500 x 80 ft. / 762 x 24 m
Surface: turf
RUNWAY 6  RUNWAY 24
Traffic pattern: leftleft
Obstructions: 100 ft. trees, 400 ft. from runwaynone

Airport Ownership and Management from official FAA records

Ownership: Privately-owned
Owner: ERNEST H. YOUDERIAN
585W-500SO
COUPEVILLE, WA 98239
Phone 206-678-4147
Manager: ERNEST H. YOUDERIAN
585W-500SO
COUPEVILLE, WA 98239
Phone 206-678-4147

Airport Operational Statistics

Aircraft based on the field: 7
Single engine airplanes: 7
    

Additional Remarks

CTC WHIDBEY NAS ON 127.9 OR APCH CTL 118.2 OR ATIS ON 134.15. FOR ARPT TFC AREA HOT OR COLD JET TFC ON DLNG & TKOF.
AIRPARK APPROVED FOR PERSONAL USE ONLY.
FOR CD CTC SEATTLE ARTCC AT 253-351-3694.

Instrument Procedures

There are no published instrument procedures at WN40.

Some nearby airports with instrument procedures:

KOKH - AJ Eisenberg Airport (4 nm N)
KNUW - Whidbey Island Naval Air Station (Ault Field) (10 nm N)
0S9 - Jefferson County International Airport (11 nm SW)
KBVS - Skagit Regional Airport (19 nm NE)
KAWO - Arlington Municipal Airport (19 nm E)
 
Loc | Ops | Rwys | IFR | FBO | Links
Com | Nav | Svcs | Stats | Notes
Area around WN40 (Coupeville Airpark)
 
Road maps at: MapQuest Bing Google
 
Aerial photo
No photo
 
Sectional chart

 
Airport distance calculator
Flying to Coupeville Airpark? Find the distance to fly.

From to WN40

Sunrise and sunset
Times for 22-Jan-2020
 Local
(UTC-8)
 Zulu
(UTC)
Morning civil twilight07:1715:17
Sunrise07:5115:51
Sunset16:5300:53
Evening civil twilight17:2801:28

Current date and time
Zulu (UTC)  23-Jan-2020 02:47:55
Local (UTC-8)  22-Jan-2020 18:47:55
 
METAR
KNUW 
10nm N 
230156Z 12016G23KT 10SM -RA FEW012 BKN022 OVC055 09/06 A2997 RMK AO2 SLP148 P0001 T00940056
K0S9 
11nm SW 
230235Z AUTO 13009KT 10SM OVC010 08/07 A2992 RMK AO2
KBVS 
19nm NE 
230235Z AUTO 08009G14KT 10SM OVC021 06/05 A2996 RMK A01
KAWO 
19nm E 
230206Z AUTO 35007KT 10SM -RA FEW008 OVC023 06/06 A2999 RMK AO2 P0002
TAF
KNUW 
10nm N 
2215/2315 14010G16KT 9999 VCSH SCT020 BKN040 BKN100 OVC200 640509 641406 530009 QNH2997INS TEMPO 2215/2218 13015G24KT 9999 -RA BR SCT008 BKN020 OVC050 FM222100 15018G32KT 9999 -RA SCT020 BKN030 BKN150 640509 641406530009 550909 551809 QNH2995INS TEMPO 2221/2303 13020G36KT 8000 -RA BR SCT008 BKN020 OVC050 FM230300 13018G30KT 8000 -SHRA BR SCT008 BKN015 OVC060 640609 641505 530009 550909 551809 QNH2989INS TEMPO 2309/2315 15022G40KT 6000 RA BR SCT008 BKN028 OVC050 T11/2223Z T07/2313Z FS30004
NOTAMs
Click for the latest NOTAMs
NOTAMs are issued by the DoD/FAA and will open in a separate window not controlled by AirNav.

 

 
 

Would you like to see your business listed on this page?

 If your business provides an interesting product or service to pilots, flight crews, aircraft, or users of the Coupeville Airpark, you should consider listing it here.  To start the listing process, click on the button below
 
Add a business
 

Other Pages about Coupeville Airpark

Update a link
 
Copyright © AirNav, LLC. All rights reserved. Privacy Policy  Contact